Location: Rumah Apan
(2.7833°N, 113.9500°E)
Time: 16:57:30
(UTC+00:00)

DMSP B5D2-2 - Pass Details

Date: 25 July 2021
Orbit: 790 x 805 km, 98.3° (Epoch: 17 September)

Event Time Altitude Azimuth Distance (km) Brightness Sun altitude
Rises 10:59:52 0° 15° (NNE) 3,274 7.3 -5.9°
Reaches altitude 10° 11:02:11 10° 17° (NNE) 2,348 6.6 -6.5°
Maximum altitude 11:07:21 74° 102° (ESE) 826 4.0 -7.7°
Drops below altitude 10° 11:12:34 10° 187° (S) 2,364 6.4 -8.9°
Sets 11:14:54 0° 188° (S) 3,297 7.2 -9.4°
